VHA7A YBRM-YBRM

Flight info

Callsign VHA7A
Flight time 1h 25m
Altitude 6000
Route LULDI DCT OL648 DCT BRMHA
Aircraft H160/L-SBDGRY/S

Departure

Time 2026-05-06 08:44
Airport Broome International Airport (YBRM)

Arrival

Time 2026-05-06 10:09
Airport Broome International Airport (YBRM)
Time Latitude Longitude Altitude Speed Heading
2026-05-06 08:30 -17.94988 122.23614 26 ft 0 kts 14°
2026-05-06 08:41 -17.94979 122.23617 26 ft 5 kts 27°
2026-05-06 08:42 -17.94981 122.23667 29 ft 8 kts 105°
2026-05-06 08:42 -17.95009 122.23703 26 ft 7 kts 180°
2026-05-06 08:42 -17.95056 122.23705 27 ft 6 kts 193°
2026-05-06 08:42 -17.95098 122.23693 27 ft 8 kts 199°
2026-05-06 08:43 -17.95116 122.23646 27 ft 5 kts 290°
2026-05-06 08:43 -17.95116 122.23645 27 ft 0 kts 288°
2026-05-06 08:43 -17.95115 122.23639 39 ft 1 kts 287°
2026-05-06 08:43 -17.95095 122.23543 150 ft 31 kts 287°
2026-05-06 08:44 -17.95022 122.23209 410 ft 65 kts 283°
2026-05-06 08:44 -17.94951 122.22621 648 ft 86 kts 289°
2026-05-06 08:44 -17.94773 122.21996 858 ft 100 kts 287°
2026-05-06 08:44 -17.94583 122.21235 1094 ft 111 kts 289°
2026-05-06 08:45 -17.94382 122.20436 1317 ft 116 kts 287°
2026-05-06 08:45 -17.93970 122.19711 1423 ft 118 kts 321°
2026-05-06 08:45 -17.93200 122.19451 1484 ft 119 kts
2026-05-06 08:45 -17.92408 122.19714 1502 ft 121 kts 20°
2026-05-06 08:46 -17.91633 122.20071 1509 ft 121 kts 19°
2026-05-06 08:46 -17.90862 122.20407 1515 ft 120 kts 17°
2026-05-06 08:46 -17.90063 122.20701 1518 ft 121 kts 14°
2026-05-06 08:46 -17.89280 122.20950 1578 ft 117 kts 12°
2026-05-06 08:47 -17.88481 122.21181 1678 ft 118 kts 11°
2026-05-06 08:47 -17.87711 122.21390 1790 ft 118 kts 10°
2026-05-06 08:47 -17.86891 122.21604 1912 ft 123 kts 11°
2026-05-06 08:47 -17.86062 122.21824 2034 ft 123 kts 10°
2026-05-06 08:48 -17.85231 122.22038 2156 ft 123 kts 10°
2026-05-06 08:48 -17.84392 122.22248 2279 ft 124 kts 12°
2026-05-06 08:48 -17.83552 122.22459 2398 ft 125 kts 13°
2026-05-06 08:48 -17.82714 122.22668 2522 ft 124 kts 11°
2026-05-06 08:49 -17.81873 122.22877 2642 ft 124 kts 13°
2026-05-06 08:49 -17.81050 122.23083 2762 ft 121 kts 11°
2026-05-06 08:49 -17.80225 122.23283 2880 ft 123 kts 12°
2026-05-06 08:49 -17.79390 122.23485 3006 ft 122 kts 13°
2026-05-06 08:50 -17.78565 122.23686 3126 ft 121 kts 13°
2026-05-06 08:50 -17.77743 122.23886 3249 ft 122 kts 13°
2026-05-06 08:50 -17.76908 122.24088 3380 ft 124 kts 13°
2026-05-06 08:50 -17.76064 122.24291 3518 ft 124 kts 14°
2026-05-06 08:51 -17.75218 122.24497 3648 ft 125 kts 13°
2026-05-06 08:51 -17.74375 122.24702 3777 ft 126 kts 13°
2026-05-06 08:51 -17.73518 122.24910 3899 ft 127 kts 13°
2026-05-06 08:51 -17.72635 122.25120 4016 ft 134 kts 14°
2026-05-06 08:52 -17.71712 122.25343 4141 ft 137 kts 13°
2026-05-06 08:52 -17.70790 122.25567 4296 ft 130 kts 14°
2026-05-06 08:52 -17.69941 122.25772 4541 ft 126 kts 11°
2026-05-06 08:52 -17.69074 122.25971 4802 ft 128 kts 13°
2026-05-06 08:53 -17.68198 122.26178 5062 ft 129 kts 13°
2026-05-06 08:53 -17.67318 122.26389 5315 ft 130 kts 13°
2026-05-06 08:53 -17.66430 122.26601 5573 ft 131 kts 13°
2026-05-06 08:53 -17.65533 122.26818 5824 ft 133 kts 13°
2026-05-06 08:54 -17.64628 122.27045 5950 ft 135 kts 14°
2026-05-06 08:54 -17.63693 122.27279 5991 ft 145 kts 13°
2026-05-06 08:54 -17.62684 122.27529 6028 ft 152 kts 14°
2026-05-06 08:54 -17.61660 122.27787 6045 ft 154 kts 14°
2026-05-06 08:55 -17.60619 122.28046 6050 ft 154 kts 13°
2026-05-06 08:55 -17.59575 122.28299 6042 ft 154 kts 13°
2026-05-06 08:55 -17.58530 122.28552 6035 ft 154 kts 13°
2026-05-06 08:55 -17.57487 122.28804 6032 ft 154 kts 12°
2026-05-06 08:56 -17.56441 122.29055 6034 ft 154 kts 13°
2026-05-06 08:56 -17.55400 122.29306 6038 ft 154 kts 13°
2026-05-06 08:56 -17.54356 122.29558 6046 ft 155 kts 13°
2026-05-06 08:56 -17.53304 122.29815 6043 ft 157 kts 13°
2026-05-06 08:57 -17.52244 122.30074 6039 ft 156 kts 13°
2026-05-06 08:57 -17.51194 122.30327 6031 ft 155 kts 13°
2026-05-06 08:57 -17.50150 122.30578 6034 ft 154 kts 12°
2026-05-06 08:57 -17.49103 122.30831 6037 ft 154 kts 13°
2026-05-06 08:58 -17.48056 122.31085 6045 ft 155 kts 13°
2026-05-06 08:58 -17.44925 122.31839 6024 ft 153 kts 12°
2026-05-06 08:58 -17.40891 122.32810 5997 ft 154 kts 13°
2026-05-06 08:58 -17.36747 122.33810 6013 ft 151 kts 12°
2026-05-06 08:59 -17.32611 122.34805 6014 ft 152 kts 13°
2026-05-06 08:59 -17.28493 122.35800 6014 ft 152 kts 13°
2026-05-06 08:59 -17.24372 122.36792 6012 ft 152 kts 13°
2026-05-06 08:59 -17.20247 122.37784 6012 ft 152 kts 13°
2026-05-06 09:00 -17.15875 122.38838 6012 ft 150 kts 13°
2026-05-06 09:00 -17.07745 122.40792 6015 ft 151 kts 13°
2026-05-06 09:00 -17.02094 122.42151 6013 ft 150 kts 13°
2026-05-06 09:00 -16.98031 122.43125 6013 ft 150 kts 12°
2026-05-06 09:01 -16.93947 122.44109 6014 ft 150 kts 13°
2026-05-06 09:01 -16.90016 122.45052 6012 ft 150 kts 13°
2026-05-06 09:01 -16.87108 122.45751 6013 ft 150 kts 14°
2026-05-06 09:01 -16.83042 122.46724 6015 ft 149 kts 14°
2026-05-06 09:02 -16.78974 122.47699 6014 ft 150 kts 14°
2026-05-06 09:02 -16.74909 122.48672 6020 ft 150 kts 13°
2026-05-06 09:02 -16.70895 122.49635 6010 ft 150 kts 13°
2026-05-06 09:02 -16.66772 122.50621 6019 ft 150 kts 13°
2026-05-06 09:03 -16.62704 122.51595 6005 ft 150 kts 13°
2026-05-06 09:03 -16.58689 122.52554 6011 ft 150 kts 15°
2026-05-06 09:03 -16.54626 122.53526 6010 ft 150 kts 15°
2026-05-06 09:03 -16.50566 122.54498 6006 ft 150 kts 14°
2026-05-06 09:04 -16.46503 122.55467 6013 ft 150 kts 15°
2026-05-06 09:04 -16.42437 122.56438 6010 ft 150 kts 15°
2026-05-06 09:04 -16.38378 122.57406 6013 ft 149 kts 15°
2026-05-06 09:04 -16.34309 122.58378 6012 ft 149 kts 15°
2026-05-06 09:05 -16.30241 122.59348 6012 ft 150 kts 14°
2026-05-06 09:05 -16.26171 122.60319 6009 ft 150 kts 16°
2026-05-06 09:05 -16.22096 122.61289 6019 ft 150 kts 15°
2026-05-06 09:05 -16.18013 122.62264 6012 ft 150 kts 15°
2026-05-06 09:06 -16.13959 122.63228 6010 ft 149 kts 16°
2026-05-06 09:06 -16.09907 122.64190 6011 ft 150 kts 15°
2026-05-06 09:06 -16.05863 122.65151 6012 ft 150 kts 15°
2026-05-06 09:06 -16.02600 122.65949 5684 ft 157 kts 16°
2026-05-06 09:07 -16.00486 122.66464 5441 ft 155 kts 15°
2026-05-06 09:07 -15.98377 122.66971 5181 ft 157 kts 17°
2026-05-06 09:07 -15.96151 122.67498 5045 ft 151 kts 16°
2026-05-06 09:07 -15.92081 122.68446 5010 ft 148 kts 15°
2026-05-06 09:08 -15.88052 122.69393 5009 ft 147 kts 15°
2026-05-06 09:08 -15.84030 122.70343 5010 ft 149 kts 15°
2026-05-06 09:08 -15.81354 122.70981 5012 ft 149 kts 15°
2026-05-06 09:08 -15.77342 122.71932 5009 ft 147 kts 16°
2026-05-06 09:09 -15.73337 122.72880 5010 ft 149 kts 15°
2026-05-06 09:09 -15.69344 122.73833 5013 ft 146 kts 16°
2026-05-06 09:09 -15.65370 122.74767 5012 ft 149 kts 15°
2026-05-06 09:09 -15.61343 122.75723 5010 ft 149 kts 16°
2026-05-06 09:10 -15.57306 122.76680 5013 ft 149 kts 17°
2026-05-06 09:10 -15.53277 122.77633 5018 ft 148 kts 16°
2026-05-06 09:10 -15.49407 122.78550 4990 ft 143 kts 15°
2026-05-06 09:10 -15.45397 122.79491 5019 ft 148 kts 16°
2026-05-06 09:11 -15.41387 122.80441 5014 ft 148 kts 17°
2026-05-06 09:11 -15.37347 122.81396 5016 ft 150 kts 17°
2026-05-06 09:11 -15.33285 122.82359 5009 ft 149 kts 17°
2026-05-06 09:11 -15.29248 122.83309 5013 ft 150 kts 17°
2026-05-06 09:12 -15.25187 122.84270 5017 ft 149 kts 16°
2026-05-06 09:12 -15.18743 122.85784 5025 ft 149 kts 17°
2026-05-06 09:12 -15.10621 122.87703 5009 ft 149 kts 17°
2026-05-06 09:12 -15.02558 122.89595 5013 ft 148 kts 17°
2026-05-06 09:13 -14.94490 122.91500 5014 ft 148 kts 17°
2026-05-06 09:13 -14.86378 122.93409 5025 ft 148 kts 17°
2026-05-06 09:13 -14.78259 122.95316 5027 ft 149 kts 17°
2026-05-06 09:13 -14.70130 122.97222 5013 ft 150 kts 17°
2026-05-06 09:14 -14.61967 122.99131 5013 ft 150 kts 18°
2026-05-06 09:14 -14.53856 123.01039 5003 ft 150 kts 18°
2026-05-06 09:14 -14.45701 123.02949 5018 ft 150 kts 18°
2026-05-06 09:14 -14.37532 123.04854 5011 ft 149 kts 18°
2026-05-06 09:15 -14.29382 123.06770 4893 ft 154 kts 19°
2026-05-06 09:15 -14.20939 123.08785 3996 ft 154 kts 19°
2026-05-06 09:15 -14.18339 123.09391 3803 ft 156 kts 15°
2026-05-06 09:15 -14.17302 123.09633 3564 ft 155 kts 19°
2026-05-06 09:16 -14.16264 123.09879 3367 ft 153 kts 20°
2026-05-06 09:16 -14.15222 123.10129 3150 ft 157 kts 19°
2026-05-06 09:16 -14.14154 123.10380 2958 ft 157 kts 19°
2026-05-06 09:16 -14.13082 123.10632 2760 ft 157 kts 19°
2026-05-06 09:17 -14.12036 123.10879 2571 ft 155 kts 19°
2026-05-06 09:17 -14.10978 123.11129 2400 ft 157 kts 20°
2026-05-06 09:17 -14.09914 123.11377 2261 ft 157 kts 20°
2026-05-06 09:17 -14.08852 123.11624 2096 ft 157 kts 19°
2026-05-06 09:18 -14.07783 123.11872 1924 ft 158 kts 18°
2026-05-06 09:18 -14.06726 123.12117 1753 ft 156 kts 19°
2026-05-06 09:18 -14.05661 123.12363 1583 ft 157 kts 17°
2026-05-06 09:18 -14.04595 123.12613 1405 ft 157 kts 20°
2026-05-06 09:19 -14.03586 123.12830 1268 ft 134 kts 13°
2026-05-06 09:19 -14.02738 123.12902 1102 ft 109 kts 17°
2026-05-06 09:19 -14.02089 123.13052 931 ft 84 kts 22°
2026-05-06 09:19 -14.01551 123.13197 760 ft 80 kts 20°
2026-05-06 09:20 -14.01003 123.13345 624 ft 80 kts 19°
2026-05-06 09:20 -14.00452 123.13487 555 ft 84 kts 20°
2026-05-06 09:20 -13.99897 123.13627 533 ft 76 kts 25°
2026-05-06 09:20 -13.99448 123.13736 518 ft 60 kts 15°
2026-05-06 09:21 -13.99022 123.13751 508 ft 65 kts
2026-05-06 09:21 -13.98585 123.13719 508 ft 56 kts
2026-05-06 09:21 -13.98220 123.13742 500 ft 51 kts
2026-05-06 09:21 -13.97864 123.13724 503 ft 51 kts 16°
2026-05-06 09:22 -13.97507 123.13695 503 ft 51 kts 12°
2026-05-06 09:22 -13.97156 123.13686 502 ft 50 kts 17°
2026-05-06 09:22 -13.96835 123.13700 539 ft 39 kts 33°
2026-05-06 09:22 -13.96596 123.13797 565 ft 38 kts 62°
2026-05-06 09:23 -13.96416 123.14108 458 ft 61 kts 86°
2026-05-06 09:23 -13.96411 123.14395 455 ft 28 kts 153°
2026-05-06 09:23 -13.96546 123.14492 275 ft 20 kts 145°
2026-05-06 09:23 -13.96613 123.14531 203 ft 7 kts 152°
2026-05-06 09:24 -13.96641 123.14537 157 ft 3 kts 132°
2026-05-06 09:24 -13.96649 123.14546 156 ft 1 kts 132°
2026-05-06 09:24 -13.96652 123.14548 136 ft 0 kts 132°
2026-05-06 09:27 -13.96643 123.14550 214 ft 6 kts 133°
2026-05-06 09:27 -13.96752 123.14723 464 ft 49 kts 152°
2026-05-06 09:27 -13.97099 123.14836 811 ft 53 kts 180°
2026-05-06 09:28 -13.97524 123.14727 859 ft 77 kts 195°
2026-05-06 09:28 -13.98095 123.14555 927 ft 87 kts 188°
2026-05-06 09:28 -13.98679 123.14398 1163 ft 85 kts 188°
2026-05-06 09:28 -13.99245 123.14257 1409 ft 83 kts 183°
2026-05-06 09:29 -13.99848 123.14121 1649 ft 96 kts 186°
2026-05-06 09:29 -14.00480 123.13973 1893 ft 91 kts 186°
2026-05-06 09:29 -14.01091 123.13837 2134 ft 90 kts 184°
2026-05-06 09:29 -14.01729 123.13701 2379 ft 96 kts 181°
2026-05-06 09:30 -14.02395 123.13559 2638 ft 98 kts 182°
2026-05-06 09:30 -14.03057 123.13417 2867 ft 97 kts 182°
2026-05-06 09:30 -14.03707 123.13280 3111 ft 95 kts 182°
2026-05-06 09:30 -14.04363 123.13144 3352 ft 97 kts 182°
2026-05-06 09:31 -14.05020 123.13008 3592 ft 96 kts 181°
2026-05-06 09:31 -14.05665 123.12876 3809 ft 95 kts 181°
2026-05-06 09:31 -14.06338 123.12738 3916 ft 101 kts 185°
2026-05-06 09:31 -14.07039 123.12588 3963 ft 106 kts 184°
2026-05-06 09:32 -14.07758 123.12436 3989 ft 104 kts 179°
2026-05-06 09:32 -14.08498 123.12299 3988 ft 116 kts 180°
2026-05-06 09:32 -14.09360 123.12201 3991 ft 134 kts 179°
2026-05-06 09:32 -14.10342 123.12094 3994 ft 149 kts 182°
2026-05-06 09:33 -14.11395 123.11904 3993 ft 158 kts 186°
2026-05-06 09:33 -14.12515 123.11716 3996 ft 166 kts 184°
2026-05-06 09:33 -14.13592 123.11577 3889 ft 158 kts 177°
2026-05-06 09:33 -14.14733 123.11492 3933 ft 172 kts 183°
2026-05-06 09:34 -14.15882 123.11325 3941 ft 174 kts 181°
2026-05-06 09:34 -14.16580 123.11286 3797 ft 120 kts 175°
2026-05-06 09:34 -14.17668 123.11009 2946 ft 184 kts 192°
2026-05-06 09:34 -14.18815 123.10670 3105 ft 143 kts 174°
2026-05-06 09:35 -14.19991 123.10504 2423 ft 191 kts 181°
2026-05-06 09:35 -14.20762 123.10420 2275 ft 112 kts 172°
2026-05-06 09:35 -14.21580 123.10351 2308 ft 105 kts 178°
2026-05-06 09:35 -14.22226 123.10147 2542 ft 96 kts 189°
2026-05-06 09:36 -14.22870 123.09912 2780 ft 99 kts 190°
2026-05-06 09:36 -14.23802 123.09596 3114 ft 104 kts 191°
2026-05-06 09:36 -14.25143 123.09194 3598 ft 99 kts 184°
2026-05-06 09:36 -14.26550 123.08829 3900 ft 107 kts 189°
2026-05-06 09:37 -14.28005 123.08465 3985 ft 109 kts 186°
2026-05-06 09:37 -14.30821 123.07828 4005 ft 110 kts 184°
2026-05-06 09:37 -14.33829 123.07205 4004 ft 110 kts 182°
2026-05-06 09:37 -14.37895 123.06388 4002 ft 108 kts 182°
2026-05-06 09:38 -14.43855 123.05203 4027 ft 109 kts 184°
2026-05-06 09:38 -14.49859 123.04000 4014 ft 110 kts 184°
2026-05-06 09:38 -14.55919 123.02785 4014 ft 112 kts 183°
2026-05-06 09:38 -14.62001 123.01573 4013 ft 111 kts 183°
2026-05-06 09:39 -14.68069 123.00357 4013 ft 110 kts 183°
2026-05-06 09:39 -14.74062 122.99163 4006 ft 110 kts 185°
2026-05-06 09:39 -14.80105 122.97947 4011 ft 111 kts 184°
2026-05-06 09:39 -14.86139 122.96739 4013 ft 110 kts 184°
2026-05-06 09:40 -14.92194 122.95525 4016 ft 112 kts 184°
2026-05-06 09:40 -14.98276 122.94302 4016 ft 111 kts 184°
2026-05-06 09:40 -15.10477 122.91854 4013 ft 112 kts 185°
2026-05-06 09:41 -15.16529 122.90638 4009 ft 112 kts 185°
2026-05-06 09:41 -15.22603 122.89413 4015 ft 112 kts 185°
2026-05-06 09:41 -15.28709 122.88185 4001 ft 111 kts 186°
2026-05-06 09:41 -15.34792 122.86958 4028 ft 111 kts 186°
2026-05-06 09:42 -15.40890 122.85735 4026 ft 111 kts 186°
2026-05-06 09:42 -15.46979 122.84506 4020 ft 113 kts 187°
2026-05-06 09:42 -15.53103 122.83266 4016 ft 113 kts 186°
2026-05-06 09:42 -15.59211 122.82042 4019 ft 111 kts 186°
2026-05-06 09:43 -15.65266 122.80819 4010 ft 111 kts 187°
2026-05-06 09:43 -15.71387 122.79573 4010 ft 112 kts 186°
2026-05-06 09:43 -15.77524 122.78332 4025 ft 114 kts 187°
2026-05-06 09:43 -15.83656 122.77098 4009 ft 112 kts 187°
2026-05-06 09:44 -15.89764 122.75853 4020 ft 112 kts 186°
2026-05-06 09:44 -15.95883 122.74621 4013 ft 112 kts 187°
2026-05-06 09:44 -16.02070 122.73367 4010 ft 113 kts 189°
2026-05-06 09:44 -16.08270 122.72111 4018 ft 113 kts 188°
2026-05-06 09:45 -16.14463 122.70842 4017 ft 115 kts 188°
2026-05-06 09:45 -16.20708 122.69586 4024 ft 113 kts 188°
2026-05-06 09:45 -16.26890 122.68321 4016 ft 114 kts 188°
2026-05-06 09:45 -16.33099 122.67064 4014 ft 115 kts 189°
2026-05-06 09:46 -16.39297 122.65800 4025 ft 112 kts 189°
2026-05-06 09:46 -16.45513 122.64531 4017 ft 116 kts 189°
2026-05-06 09:46 -16.51704 122.63275 4020 ft 113 kts 189°
2026-05-06 09:46 -16.57889 122.62010 4017 ft 113 kts 189°
2026-05-06 09:47 -16.64064 122.60750 4043 ft 112 kts 189°
2026-05-06 09:47 -16.70185 122.59503 4032 ft 111 kts 188°
2026-05-06 09:47 -16.76362 122.58243 4014 ft 113 kts 189°
2026-05-06 09:47 -16.82526 122.56981 4025 ft 112 kts 189°
2026-05-06 09:48 -16.88335 122.55784 4026 ft 114 kts 189°
2026-05-06 09:48 -16.94559 122.54516 3966 ft 116 kts 188°
2026-05-06 09:48 -17.00794 122.53244 4010 ft 113 kts 189°
2026-05-06 09:48 -17.07004 122.51965 4002 ft 114 kts 189°
2026-05-06 09:49 -17.13266 122.50685 3997 ft 116 kts 189°
2026-05-06 09:49 -17.19468 122.49410 4000 ft 112 kts 188°
2026-05-06 09:49 -17.25590 122.48154 4011 ft 112 kts 188°
2026-05-06 09:49 -17.29352 122.47378 4007 ft 114 kts 189°
2026-05-06 09:50 -17.32439 122.46743 4009 ft 113 kts 187°
2026-05-06 09:50 -17.35543 122.46107 4005 ft 114 kts 187°
2026-05-06 09:50 -17.38651 122.45471 4009 ft 115 kts 189°
2026-05-06 09:50 -17.40943 122.44995 4011 ft 115 kts 189°
2026-05-06 09:51 -17.42491 122.44677 4010 ft 113 kts 189°
2026-05-06 09:51 -17.44025 122.44361 4010 ft 112 kts 189°
2026-05-06 09:51 -17.45570 122.44044 4007 ft 114 kts 187°
2026-05-06 09:51 -17.47128 122.43724 4007 ft 113 kts 188°
2026-05-06 09:52 -17.48015 122.43541 4006 ft 114 kts 187°
2026-05-06 09:52 -17.48785 122.43383 4007 ft 113 kts 188°
2026-05-06 09:52 -17.49560 122.43224 4005 ft 115 kts 190°
2026-05-06 09:52 -17.50341 122.43063 4006 ft 115 kts 190°
2026-05-06 09:53 -17.51123 122.42900 4007 ft 115 kts 189°
2026-05-06 09:53 -17.51904 122.42741 4007 ft 113 kts 191°
2026-05-06 09:53 -17.52675 122.42582 4008 ft 113 kts 189°
2026-05-06 09:53 -17.53454 122.42424 4008 ft 114 kts 189°
2026-05-06 09:54 -17.54233 122.42264 4006 ft 113 kts 191°
2026-05-06 09:54 -17.55008 122.42103 4005 ft 114 kts 190°
2026-05-06 09:54 -17.55788 122.41943 4008 ft 114 kts 190°
2026-05-06 09:54 -17.56565 122.41782 4006 ft 114 kts 189°
2026-05-06 09:55 -17.57345 122.41621 4012 ft 114 kts 191°
2026-05-06 09:55 -17.58124 122.41460 4009 ft 114 kts 189°
2026-05-06 09:55 -17.58903 122.41302 4010 ft 113 kts 191°
2026-05-06 09:55 -17.59658 122.41147 4007 ft 110 kts 190°
2026-05-06 09:56 -17.60409 122.40994 4005 ft 111 kts 190°
2026-05-06 09:56 -17.61165 122.40837 4006 ft 110 kts 190°
2026-05-06 09:56 -17.61668 122.40733 4005 ft 112 kts 189°
2026-05-06 09:56 -17.62432 122.40574 4006 ft 112 kts 190°
2026-05-06 09:57 -17.63202 122.40416 4004 ft 113 kts 190°
2026-05-06 09:57 -17.63970 122.40257 4006 ft 111 kts 190°
2026-05-06 09:57 -17.64732 122.40099 4004 ft 111 kts 191°
2026-05-06 09:57 -17.65488 122.39943 4005 ft 111 kts 191°
2026-05-06 09:58 -17.66248 122.39786 4002 ft 112 kts 190°
2026-05-06 09:58 -17.67012 122.39628 4003 ft 113 kts 190°
2026-05-06 09:58 -17.67768 122.39471 4002 ft 109 kts 189°
2026-05-06 09:58 -17.68515 122.39318 4000 ft 109 kts 190°
2026-05-06 09:59 -17.69264 122.39165 4004 ft 110 kts 190°
2026-05-06 09:59 -17.70024 122.39009 4004 ft 111 kts 190°
2026-05-06 09:59 -17.70778 122.38852 4003 ft 110 kts 190°
2026-05-06 09:59 -17.71538 122.38695 4004 ft 112 kts 191°
2026-05-06 10:00 -17.72301 122.38538 4004 ft 111 kts 190°
2026-05-06 10:00 -17.73052 122.38381 4004 ft 110 kts 190°
2026-05-06 10:00 -17.73814 122.38223 3965 ft 113 kts 189°
2026-05-06 10:00 -17.74583 122.38058 3845 ft 113 kts 191°
2026-05-06 10:01 -17.75348 122.37897 3726 ft 112 kts 191°
2026-05-06 10:01 -17.76116 122.37737 3607 ft 113 kts 190°
2026-05-06 10:01 -17.76883 122.37579 3486 ft 112 kts 191°
2026-05-06 10:01 -17.77639 122.37421 3366 ft 110 kts 191°
2026-05-06 10:02 -17.78382 122.37266 3249 ft 111 kts 191°
2026-05-06 10:02 -17.79151 122.37104 3128 ft 112 kts 190°
2026-05-06 10:02 -17.79909 122.36946 3005 ft 114 kts 193°
2026-05-06 10:02 -17.80693 122.36785 2883 ft 114 kts 192°
2026-05-06 10:03 -17.81461 122.36627 2759 ft 112 kts 192°
2026-05-06 10:03 -17.82233 122.36467 2640 ft 112 kts 193°
2026-05-06 10:03 -17.82994 122.36308 2518 ft 113 kts 192°
2026-05-06 10:03 -17.83777 122.36147 2399 ft 115 kts 193°
2026-05-06 10:04 -17.84557 122.35981 2249 ft 113 kts 192°
2026-05-06 10:04 -17.85329 122.35824 2167 ft 114 kts 193°
2026-05-06 10:04 -17.86110 122.35678 2133 ft 113 kts 188°
2026-05-06 10:04 -17.86899 122.35617 2116 ft 115 kts 185°
2026-05-06 10:05 -17.87693 122.35574 2110 ft 113 kts 184°
2026-05-06 10:05 -17.88472 122.35536 2103 ft 111 kts 185°
2026-05-06 10:05 -17.89242 122.35500 2103 ft 112 kts 183°
2026-05-06 10:05 -17.90025 122.35464 2102 ft 113 kts 185°
2026-05-06 10:06 -17.90802 122.35427 2104 ft 112 kts 184°
2026-05-06 10:06 -17.91528 122.35196 2101 ft 109 kts 219°
2026-05-06 10:06 -17.91953 122.34573 2102 ft 104 kts 256°
2026-05-06 10:06 -17.92152 122.33855 2114 ft 103 kts 262°
2026-05-06 10:07 -17.92331 122.33121 1998 ft 103 kts 263°
2026-05-06 10:07 -17.92507 122.32445 1883 ft 86 kts 262°
2026-05-06 10:07 -17.92670 122.31861 1757 ft 85 kts 259°
2026-05-06 10:07 -17.92838 122.31262 1637 ft 86 kts 262°
2026-05-06 10:08 -17.93006 122.30665 1512 ft 84 kts 262°
2026-05-06 10:08 -17.93174 122.30080 1389 ft 83 kts 259°
2026-05-06 10:08 -17.93340 122.29506 1268 ft 83 kts 261°
2026-05-06 10:08 -17.93509 122.28929 1146 ft 82 kts 260°
2026-05-06 10:09 -17.93670 122.28389 1030 ft 68 kts 261°
2026-05-06 10:09 -17.93796 122.27985 895 ft 51 kts 258°
2026-05-06 10:09 -17.93895 122.27645 793 ft 47 kts 261°
2026-05-06 10:09 -17.93985 122.27325 650 ft 45 kts 253°
2026-05-06 10:10 -17.94085 122.26992 563 ft 49 kts 253°
2026-05-06 10:10 -17.94189 122.26660 527 ft 48 kts 253°
2026-05-06 10:10 -17.94283 122.26344 514 ft 42 kts 253°
2026-05-06 10:10 -17.94367 122.26060 506 ft 41 kts 252°
2026-05-06 10:11 -17.94464 122.25750 399 ft 56 kts 255°
2026-05-06 10:11 -17.94627 122.25351 349 ft 65 kts 248°
2026-05-06 10:11 -17.94812 122.24904 381 ft 73 kts 259°
2026-05-06 10:11 -17.95008 122.24386 314 ft 73 kts 265°
2026-05-06 10:12 -17.95145 122.23908 234 ft 61 kts 289°
2026-05-06 10:12 -17.95087 122.23544 98 ft 36 kts 295°
2026-05-06 10:12 -17.95045 122.23419 30 ft 5 kts 289°
2026-05-06 10:12 -17.95001 122.23415 29 ft 9 kts 24°
2026-05-06 10:13 -17.94963 122.23388 27 ft 5 kts 284°
2026-05-06 10:13 -17.94961 122.23386 27 ft 4 kts 139°
2026-05-06 10:13 -17.94965 122.23410 26 ft 4 kts 89°
2026-05-06 10:13 -17.94967 122.23438 26 ft 4 kts 111°
2026-05-06 10:14 -17.94980 122.23485 29 ft 9 kts 106°
2026-05-06 10:14 -17.94996 122.23548 26 ft 7 kts 104°
2026-05-06 10:14 -17.94987 122.23582 28 ft 4 kts 17°
2026-05-06 10:14 -17.94982 122.23583 26 ft 0 kts 17°